[Iaude] MPEC L76: 2024 LN1 [a=2.00,e=0.59,i=10.5,H=21.4]

mpec at cfa.harvard.edu mpec at cfa.harvard.edu
Thu Jun 6 21:00:19 EDT 2024


M.P.E.C. 2024-L76                                  Issued 2024 June 7, 00:58 UT

     The Minor Planet Electronic Circulars contain information on unusual
         minor planets, routine data on comets and natural satellites,
         and occasional editorial announcements.  They are published
    on behalf of Division F of the International Astronomical Union by the
          Minor Planet Center, Smithsonian Astrophysical Observatory,
                          Cambridge, MA 02138, U.S.A.
			  
             Prepared using the Tamkin Foundation Computer Network

                              MPC at CFA.HARVARD.EDU
            URL https://www.minorplanetcenter.net/    ISSN 1523-6714

                                    2024 LN1                                    


Observations:
     K24L01N*1C2024 06 03.36212117 36 13.169+13 24 45.00         21.06GVEL076G96
     K24L01N 1C2024 06 03.36734817 36 12.949+13 24 56.45         21.20GVEL076G96
     K24L01N 1C2024 06 03.37257417 36 12.769+13 25 07.28         20.88GVEL076G96
     K24L01N  C2024 06 05.54092417 34 44.622+14 46 13.64         20.93wXEL076F51
     K24L01N  C2024 06 05.55319017 34 44.008+14 46 41.91         21.46wXEL076F51
     K24L01N  C2024 06 05.56545417 34 43.361+14 47 09.66         21.42wXEL076F51
     K24L01N 2C2024 06 06.05716317 34 22.399+15 06 03.14         21.2 GVEL076J04
     K24L01N 2C2024 06 06.07046417 34 21.705+15 06 34.28         20.8 GVEL076J04
     K24L01N KC2024 06 06.22644517 34 15.370+15 12 34.30         20.65GVEL076I52
     K24L01N KC2024 06 06.22821417 34 14.76 +15 12 36.7          21.0 GVEL076H21
     K24L01N KC2024 06 06.22975117 34 15.190+15 12 42.30         20.70GVEL076I52
     K24L01N KC2024 06 06.23110317 34 14.60 +15 12 43.6          21.1 GVEL076H21
     K24L01N KC2024 06 06.23399317 34 14.45 +15 12 50.3          21.0 GVEL076H21
     K24L01N !C2024 06 06.28217 17 34 12.50 +15 14 44.2          20.6 GVEL076673
     K24L01N !C2024 06 06.28803 17 34 12.21 +15 14 57.2                VEL076673
     K24L01N 1C2024 06 06.99761 17 33 38.01 +15 42 41.1          21.3 VXEL076033
     K24L01N 1C2024 06 06.99928 17 33 37.93 +15 42 45.3          21.6 VXEL076033
     K24L01N 1C2024 06 07.00095 17 33 37.84 +15 42 49.1          21.5 VXEL076033

Observer details:
033 Karl Schwarzschild Observatory, Tautenburg.  Observers C. Heogner, F.
    Ludwig, M. Hartmann, B. Stecklum.  Measurer B. Stecklum.  1.34-m f/3
    Schmidt + CCD.
673 Table Mountain Observatory, Wrightwood.  Observer J. Pittichova.  1.0-m
    f/15 reflector + CCD.
F51 Pan-STARRS 1, Haleakala.  Observers J. Herman, T. Lowe, P. Minguez, A.
    Schultz, I. Smith.  Measurers K. Chambers, T. de Boer, J. Fairlamb, H.
    Gao, M. Huber, C.-C. Lin, E. Magnier, Y. Ramanjooloo, R. Wainscoat, R.
    Weryk.  1.8-m Ritchey-Chretien + CCD.
G96 Mt. Lemmon Survey.  Observer J. B. Fazekas.  Measurers T. Beuden, V. F.
    Carvajal, D. Fay, J. B. Fazekas, D. C. Fuls, A. R. Gibbs, A. D. Grauer, H.
    Groeller, J. K. Hogan, R. A. Kowalski, S. M. Larson, G. J. Leonard, D.
    Rankin, R. L. Seaman, F. C. Shelly, K. W. Wierzchos.  1.5-m reflector +
    10K CCD.
H21 Astronomical Research Observatory, Westfield.  Observer R. Holmes.
    Measurers T. Linder, R. Holmes, L. Horn.  1.3-m f/4.0 astrograph + CCD.
I52 Steward Observatory, Mt. Lemmon Station.  Observer D. Rankin.  Measurers
    T. Beuden, V. F. Carvajal, D. Fay, J. B. Fazekas, D. C. Fuls, A. R. Gibbs,
    A. D. Grauer, H. Groeller, J. K. Hogan, R. A. Kowalski, S. M. Larson, G.
    J. Leonard, D. Rankin, R. L. Seaman, F. C. Shelly, K. W. Wierzchos.  1.0-m
    prime focus + CCD.
J04 ESA Optical Ground Station, Tenerife.  Observers D. Abreu, M. Micheli, F.
    Ocana, L. Conversi.  Measurers M. Micheli, R. Kresken, F. Ocana.
    1.0-m f/4.4 reflector + CCD.

Orbital elements:
2024 LN1                                                 Earth MOID = 0.1302 AU
Epoch 2024 Mar. 31.0 TT = JDT 2460400.5                 Veres                   
M 308.62884              (2000.0)            P               Q                  
n   0.34950972     Peri.  192.91774     +0.98278656     +0.17045499             
a   1.9960123      Node   156.89813     -0.14921170     +0.95975194             
e   0.5922858      Incl.   10.46148     -0.10893324     +0.22320686             
P   2.82           H   21.41          G   0.15           U   9                  
Residuals in seconds of arc
240603 G96  0.3-  0.2+    240606 J04  0.0   0.1-    240606 H21  0.0   0.0
240603 G96  0.1-  0.2+    240606 J04  0.4+  0.1+    240606 673  0.2-  0.0
240603 G96  0.7+  0.4-    240606 I52  0.1+  0.1-    240606 673  0.1+  0.7-
240605 F51  0.2-  0.2-    240606 H21  0.0   0.1-    240606 033  0.1+  0.0
240605 F51  0.1+  0.2+    240606 I52  0.1+  0.2+    240606 033  0.3+  0.2+
240605 F51  0.1-  0.0     240606 H21  0.1-  0.0     240607 033  0.3+  0.1+

Ephemeris:
2024 LN1                 a,e,i = 2.00, 0.59, 10                  q = 0.8138
Date    TT    R. A. (2000) Decl.     Delta      r    Elong.  Phase     V
2024 05 08    17 37 59.9 +01 05 50   0.6957  1.5912   137.1    25.6    22.8
...
2024 05 23    17 40 14.0 +07 16 24   0.5207  1.4614   142.8    24.8    22.0
...
2024 05 31    17 38 01.1 +11 26 27   0.4402  1.3907   143.0    26.1    21.5
...
2024 06 06    17 34 24.9 +15 03 54   0.3856  1.3372   141.2    28.4    21.2
2024 06 07    17 33 38.0 +15 42 58   0.3769  1.3283   140.7    28.9    21.2
2024 06 08    17 32 47.7 +16 22 55   0.3684  1.3193   140.2    29.5    21.1
...
2024 06 14    17 26 31.0 +20 42 58   0.3200  1.2656   136.0    33.9    20.9
...
2024 06 22    17 14 00.9 +27 38 37   0.2622  1.1943   127.6    42.4    20.5
...
2024 07 07    16 21 51.0 +46 51 55   0.1739  1.0647   101.4    69.4    20.2

M. P. C. Staff               (C) Copyright 2024 MPC           M.P.E.C. 2024-L76





More information about the Iaude mailing list